,,Stat6,,Stat2,,Stat8,,Stat9,,Stat10,,Wind1,,Wind1,
time,status,PA1M_AVG,status,PR1M_SUM,status,RH1M_AVG,status,SR1M_AVG,status,TA1M_AVG,status,W1dAve1m,status,W1sAve1m,
2008-03-10, 00:00:00,VALID,917.844,VALID,0,VALID,100,VALID,-0.0679233,VALID,17.934,VALID,119,VALID,0,
2008-03-10, 00:01:00,VALID,917.837,VALID,0,VALID,100,VALID,-0.0339617,VALID,17.9211,VALID,119,VALID,0,
2008-03-10, 00:02:00,VALID,917.854,VALID,0,VALID,100,VALID,-0.0679233,VALID,17.9373,VALID,119,VALID,0,
2008-03-10, 00:03:00,VALID,917.857,VALID,0,VALID,100,VALID,-0.0509425,VALID,17.9598,VALID,119,VALID,0,
2008-03-10, 00:04:00,VALID,917.868,VALID,0,VALID,100,VALID,-0.0849042,VALID,17.9535,VALID,119,VALID,0,
2008-03-10, 00:05:00,VALID,917.862,VALID,0,VALID,100,VALID,-0.0679233,VALID,17.95,VALID,119,VALID,0,
2008-03-10, 00:06:01,VALID,917.851,VALID,0,VALID,100,VALID,-0.0679233,VALID,17.9403,VALID,119,VALID,0,
2008-03-10, 00:07:01,VALID,917.833,VALID,0,VALID,100,VALID,-0.0169808,VALID,17.9604,VALID,120,VALID,0,
2008-03-10, 00:08:00,VALID,917.814,VALID,0,VALID,100,VALID,-0.0849042,VALID,17.9537,VALID,135,VALID,0,
2008-03-10, 00:09:00,VALID,917.829,VALID,0,VALID,100,VALID,-0.0509425,VALID,17.9505,VALID,139,VALID,0,
2008-03-10, 00:10:00,VALID,917.82,VALID,0,VALID,100,VALID,-0.0339617,VALID,17.9503,VALID,139,VALID,0,
2008-03-10, 00:11:00,VALID,917.82,VALID,0,VALID,100,VALID,-0.0849042,VALID,17.9542,VALID,139,VALID,0,
2008-03-10, 00:12:00,VALID,917.813,VALID,0,VALID,100,VALID,-0.0679233,VALID,17.9306,VALID,139,VALID,0,
2008-03-10, 00:13:01,VALID,917.806,VALID,0,VALID,100,VALID,-0.0509425,VALID,17.9269,VALID,139,VALID,0,
2008-03-10, 00:14:00,VALID,917.78,VALID,0,VALID,100,VALID,0,VALID,17.9338,VALID,139,VALID,0,
2008-03-10, 00:15:01,VALID,917.762,VALID,0,VALID,100,VALID,-0.0509425,VALID,17.9303,VALID,139,VALID,0,
2008-03-10, 00:16:00,VALID,917.717,VALID,0,VALID,100,VALID,-0.0169808,VALID,17.9334,VALID,125,VALID,0,
2008-03-10, 00:17:00,VALID,917.711,VALID,0,VALID,100,VALID,-0.0509425,VALID,17.9336,VALID,108,VALID,0,
2008-03-10, 00:18:01,VALID,917.688,VALID,0,VALID,100,VALID,0,VALID,17.9271,VALID,107,VALID,0,
2008-03-10, 00:19:00,VALID,917.671,VALID,0,VALID,100,VALID,-0.0169808,VALID,17.9141,VALID,105,VALID,0,
2008-03-10, 00:20:00,VALID,917.67,VALID,0,VALID,100,VALID,-0.0169808,VALID,17.9109,VALID,104,VALID,0,
2008-03-10, 00:21:00,VALID,917.656,VALID,0,VALID,100,VALID,-0.0509425,VALID,17.9141,VALID,104,VALID,0,
2008-03-10, 00:22:01,VALID,917.65,VALID,0,VALID,100,VALID,-0.0679233,VALID,17.9174,VALID,104,VALID,0,
2008-03-10, 00:23:00,VALID,917.647,VALID,0,VALID,100,VALID,-0.0509425,VALID,17.9042,VALID,104,VALID,0,
2008-03-10, 00:24:00,VALID,917.654,VALID,0,VALID,100,VALID,-0.0679233,VALID,17.9076,VALID,104,VALID,0,
2008-03-10, 00:25:00,VALID,917.641,VALID,0,VALID,100,VALID,-0.0679233,VALID,17.9016,VALID,104,VALID,0,
2008-03-10, 00:26:00,VALID,917.639,VALID,0,VALID,100,VALID,-0.0339617,VALID,17.9044,VALID,104,VALID,0,
2008-03-10, 00:27:00,VALID,917.616,VALID,0,VALID,100,VALID,-0.0169808,VALID,17.9111,VALID,104,VALID,0,
2008-03-10, 00:28:00,VALID,917.614,VALID,0,VALID,100,VALID,-0.0679233,VALID,17.9109,VALID,116,VALID,0,
2008-03-10, 00:29:00,VALID,917.595,VALID,0,VALID,100,VALID,-0.0679233,VALID,17.9141,VALID,120,VALID,0,
2008-03-10, 00:30:01,VALID,917.59,VALID,0,VALID,100,VALID,-0.0339617,VALID,17.9044,VALID,126,VALID,0,
2008-03-10, 00:31:01,VALID,917.559,VALID,0,VALID,100,VALID,-0.101885,VALID,17.9016,VALID,123,VALID,0,
2008-03-10, 00:32:01,VALID,917.536,VALID,0,VALID,100,VALID,-0.0509425,VALID,17.8882,VALID,125,VALID,0,
2008-03-10, 00:33:01,VALID,917.525,VALID,0,VALID,100,VALID,-0.0679233,VALID,17.8981,VALID,126,VALID,0,
2008-03-10, 00:34:01,VALID,917.494,VALID,0,VALID,100,VALID,-0.0509425,VALID,17.9141,VALID,126,VALID,0,
2008-03-10, 00:35:01,VALID,917.475,VALID,0,VALID,100,VALID,-0.0509425,VALID,17.9111,VALID,137,VALID,0,
2008-03-10, 00:36:01,VALID,917.455,VALID,0,VALID,100,VALID,-0.0509425,VALID,17.9079,VALID,147,VALID,0,
2008-03-10, 00:37:01,VALID,917.444,VALID,0,VALID,100,VALID,-0.0679233,VALID,17.9181,VALID,144,VALID,0,
2008-03-10, 00:38:01,VALID,917.429,VALID,0,VALID,100,VALID,-0.0849042,VALID,17.9016,VALID,132,VALID,0,
2008-03-10, 00:39:01,VALID,917.418,VALID,0,VALID,100,VALID,-0.101885,VALID,17.8889,VALID,135,VALID,0,
2008-03-10, 00:40:01,VALID,917.404,VALID,0,VALID,100,VALID,-0.0679233,VALID,17.8785,VALID,142,VALID,0,
2008-03-10, 00:41:01,VALID,917.371,VALID,0,VALID,100,VALID,-0.0339617,VALID,17.872,VALID,128,VALID,0.50293,
2008-03-10, 00:42:00,VALID,917.36,VALID,0,VALID,100,VALID,-0.0509425,VALID,17.8724,VALID,146,VALID,0.723474,
2008-03-10, 00:43:00,VALID,917.343,VALID,0,VALID,100,VALID,0,VALID,17.8676,VALID,139,VALID,0.195871,
2008-03-10, 00:44:00,VALID,917.317,VALID,0,VALID,100,VALID,0.0509425,VALID,17.8577,VALID,158,VALID,0.518359,
2008-03-10, 00:45:00,VALID,917.299,VALID,0,VALID,100,VALID,0.0509425,VALID,17.8577,VALID,162,VALID,0.208681,
2008-03-10, 00:46:00,VALID,917.294,VALID,0,VALID,100,VALID,0.0339617,VALID,17.8609,VALID,162,VALID,0,
2008-03-10, 00:47:00,VALID,917.283,VALID,0,VALID,100,VALID,0.0509425,VALID,17.8544,VALID,160,VALID,0,
2008-03-10, 00:48:00,VALID,917.274,VALID,0,VALID,100,VALID,0.0169808,VALID,17.8549,VALID,159,VALID,0.0477628,
2008-03-10, 00:49:00,VALID,917.278,VALID,0,VALID,100,VALID,0.0509425,VALID,17.8482,VALID,159,VALID,0,
2008-03-10, 00:50:00,VALID,917.271,VALID,0,VALID,100,VALID,0.0339617,VALID,17.8512,VALID,159,VALID,0,
2008-03-10, 00:51:00,VALID,917.284,VALID,0,VALID,100,VALID,0.0679233,VALID,17.8512,VALID,159,VALID,0,
2008-03-10, 00:52:00,VALID,917.285,VALID,0,VALID,100,VALID,0,VALID,17.8579,VALID,159,VALID,0,
2008-03-10, 00:53:00,VALID,917.281,VALID,0,VALID,100,VALID,0.0509425,VALID,17.8579,VALID,159,VALID,0,
2008-03-10, 00:54:00,VALID,917.272,VALID,0,VALID,100,VALID,0.0169808,VALID,17.8479,VALID,159,VALID,0,
2008-03-10, 00:55:00,VALID,917.251,VALID,0,VALID,100,VALID,0.0169808,VALID,17.8613,VALID,159,VALID,0,
2008-03-10, 00:56:00,VALID,917.236,VALID,0,VALID,100,VALID,0.0339617,VALID,17.835,VALID,159,VALID,0,
2008-03-10, 00:57:00,VALID,917.201,VALID,0,VALID,100,VALID,0.0169808,VALID,17.8317,VALID,159,VALID,0,
2008-03-10, 00:58:00,VALID,917.177,VALID,0,VALID,100,VALID,0.0509425,VALID,17.838,VALID,150,VALID,0,
2008-03-10, 00:59:00,VALID,917.165,VALID,0,VALID,100,VALID,0.0169808,VALID,17.8192,VALID,140,VALID,0,
2008-03-10, 01:00:00,VALID,917.159,VALID,0,VALID,100,VALID,0,VALID,17.7736,VALID,126,VALID,0,
2008-03-10, 01:01:00,VALID,917.163,VALID,0,VALID,100,VALID,0.0849042,VALID,17.744,VALID,111,VALID,0,
2008-03-10, 01:02:00,VALID,917.172,VALID,0,VALID,100,VALID,0.0339617,VALID,17.7379,VALID,111,VALID,0,
2008-03-10, 01:03:00,VALID,917.18,VALID,0,VALID,100,VALID,0.0339617,VALID,17.7347,VALID,107,VALID,0,
2008-03-10, 01:04:00,VALID,917.166,VALID,0,VALID,100,VALID,0.0169808,VALID,17.7317,VALID,102,VALID,0,
2008-03-10, 01:05:00,VALID,917.156,VALID,0,VALID,100,VALID,0.0339617,VALID,17.7312,VALID,102,VALID,0,
2008-03-10, 01:06:00,VALID,917.148,VALID,0,VALID,100,VALID,0.0339617,VALID,17.7245,VALID,102,VALID,0,
2008-03-10, 01:07:00,VALID,917.141,VALID,0,VALID,100,VALID,0.0679233,VALID,17.7243,VALID,102,VALID,0,
2008-03-10, 01:08:00,VALID,917.136,VALID,0,VALID,100,VALID,0.0339617,VALID,17.731,VALID,102,VALID,0,
2008-03-10, 01:09:00,VALID,917.121,VALID,0,VALID,100,VALID,0.101885,VALID,17.7407,VALID,102,VALID,0,
2008-03-10, 01:10:00,VALID,917.122,VALID,0,VALID,100,VALID,0.0169808,VALID,17.7444,VALID,102,VALID,0,
2008-03-10, 01:11:00,VALID,917.126,VALID,0,VALID,100,VALID,0.0849042,VALID,17.7412,VALID,102,VALID,0,
2008-03-10, 01:12:00,VALID,917.12,VALID,0,VALID,100,VALID,0.0509425,VALID,17.7442,VALID,102,VALID,0,
2008-03-10, 01:13:00,VALID,917.13,VALID,0,VALID,100,VALID,0.0169808,VALID,17.7712,VALID,102,VALID,0,
2008-03-10, 01:14:00,VALID,917.13,VALID,0,VALID,100,VALID,0,VALID,17.7872,VALID,99,VALID,0,
2008-03-10, 01:15:00,VALID,917.128,VALID,0,VALID,100,VALID,0,VALID,17.7874,VALID,85,VALID,0,
2008-03-10, 01:16:00,VALID,917.12,VALID,0,VALID,100,VALID,0,VALID,17.7414,VALID,83,VALID,0,
2008-03-10, 01:17:00,VALID,917.126,VALID,0,VALID,100,VALID,0,VALID,17.7356,VALID,83,VALID,0,
2008-03-10, 01:18:00,VALID,917.121,VALID,0,VALID,100,VALID,0,VALID,17.7198,VALID,83,VALID,0,
2008-03-10, 01:19:00,VALID,917.111,VALID,0.2,VALID,100,VALID,0,VALID,17.7064,VALID,85,VALID,0,
2008-03-10, 01:20:00,VALID,917.069,VALID,0,VALID,100,VALID,0,VALID,17.6999,VALID,84,VALID,0,
2008-03-10, 01:21:00,VALID,917.054,VALID,0,VALID,100,VALID,0.0169808,VALID,17.6867,VALID,97,VALID,0,
2008-03-10, 01:22:00,VALID,917.033,VALID,0,VALID,100,VALID,0,VALID,17.6934,VALID,112,VALID,0,
2008-03-10, 01:23:00,VALID,917.011,VALID,0,VALID,100,VALID,0,VALID,17.69,VALID,116,VALID,0,
2008-03-10, 01:24:00,VALID,916.991,VALID,0.2,VALID,100,VALID,0,VALID,17.6934,VALID,116,VALID,0,
2008-03-10, 01:25:00,VALID,916.981,VALID,0,VALID,100,VALID,0,VALID,17.6967,VALID,116,VALID,0,
2008-03-10, 01:26:00,VALID,916.97,VALID,0,VALID,100,VALID,-0.0509425,VALID,17.6967,VALID,112,VALID,0,
2008-03-10, 01:27:00,VALID,916.969,VALID,0,VALID,100,VALID,0,VALID,17.7133,VALID,112,VALID,0,
2008-03-10, 01:28:00,VALID,916.945,VALID,0,VALID,100,VALID,-0.0169808,VALID,17.7129,VALID,119,VALID,0,
2008-03-10, 01:29:00,VALID,916.925,VALID,0,VALID,100,VALID,0,VALID,17.7226,VALID,131,VALID,0.108613,
2008-03-10, 01:30:00,VALID,916.913,VALID,0,VALID,100,VALID,0,VALID,17.7286,VALID,145,VALID,0.668064,
2008-03-10, 01:31:00,VALID,916.899,VALID,0.2,VALID,100,VALID,0.0339617,VALID,17.7451,VALID,156,VALID,0.717842,
2008-03-10, 01:32:00,VALID,916.873,VALID,0,VALID,100,VALID,0,VALID,17.7518,VALID,150,VALID,0.859766,
2008-03-10, 01:33:00,VALID,916.861,VALID,0,VALID,100,VALID,0.0169808,VALID,17.7418,VALID,155,VALID,0.539435,
2008-03-10, 01:34:00,VALID,916.836,VALID,0,VALID,100,VALID,0,VALID,17.7485,VALID,147,VALID,0.584484,
2008-03-10, 01:35:00,VALID,916.814,VALID,0.2,VALID,100,VALID,0,VALID,17.7386,VALID,144,VALID,0.46733,
2008-03-10, 01:36:00,VALID,916.8,VALID,0,VALID,100,VALID,0,VALID,17.7381,VALID,141,VALID,0.312128,
2008-03-10, 01:37:00,VALID,916.779,VALID,0.2,VALID,100,VALID,0,VALID,17.7358,VALID,135,VALID,0.612038,
2008-03-10, 01:38:00,VALID,916.782,VALID,0,VALID,100,VALID,0.0339617,VALID,17.7258,VALID,136,VALID,0.648438,
2008-03-10, 01:39:00,VALID,916.764,VALID,0,VALID,100,VALID,0.0169808,VALID,17.7092,VALID,136,VALID,0.172656,
2008-03-10, 01:40:00,VALID,916.755,VALID,0.2,VALID,100,VALID,0.0339617,VALID,17.7194,VALID,142,VALID,0,
2008-03-10, 01:41:00,VALID,916.74,VALID,0,VALID,100,VALID,0.0339617,VALID,17.7092,VALID,148,VALID,0,
2008-03-10, 01:42:00,VALID,916.732,VALID,0,VALID,100,VALID,0.0339617,VALID,17.7252,VALID,149,VALID,0.554497,
2008-03-10, 01:43:00,VALID,916.721,VALID,0.2,VALID,100,VALID,-0.101885,VALID,17.7434,VALID,155,VALID,0.152158,
2008-03-10, 01:44:00,VALID,916.721,VALID,0,VALID,100,VALID,-0.0509425,VALID,17.7265,VALID,138,VALID,0.857777,
2008-03-10, 01:45:00,VALID,916.706,VALID,0,VALID,100,VALID,-0.0679233,VALID,17.743,VALID,137,VALID,0.787695,
2008-03-10, 01:46:00,VALID,916.697,VALID,0.2,VALID,100,VALID,-0.0339617,VALID,17.7263,VALID,140,VALID,0.555099,
2008-03-10, 01:47:00,VALID,916.679,VALID,0,VALID,100,VALID,-0.0509425,VALID,17.7332,VALID,138,VALID,0.644804,
2008-03-10, 01:48:00,VALID,916.66,VALID,0.2,VALID,100,VALID,-0.0169808,VALID,17.736,VALID,134,VALID,0.864062,
2008-03-10, 01:49:00,VALID,916.654,VALID,0.2,VALID,100,VALID,-0.0509425,VALID,17.7427,VALID,164,VALID,0.790879,
2008-03-10, 01:50:00,VALID,916.632,VALID,0,VALID,100,VALID,-0.101885,VALID,17.7531,VALID,152,VALID,0.472565,
2008-03-10, 01:51:00,VALID,916.628,VALID,0.2,VALID,100,VALID,-0.0849042,VALID,17.7497,VALID,149,VALID,0.886265,
2008-03-10, 01:52:00,VALID,916.634,VALID,0,VALID,100,VALID,-0.0849042,VALID,17.7527,VALID,142,VALID,0.317224,
2008-03-10, 01:53:00,VALID,916.629,VALID,0.2,VALID,100,VALID,-0.0339617,VALID,17.7626,VALID,124,VALID,0.638622,
2008-03-10, 01:54:00,VALID,916.634,VALID,0,VALID,100,VALID,-0.101885,VALID,17.7462,VALID,144,VALID,0.447856,
2008-03-10, 01:55:00,VALID,916.629,VALID,0,VALID,100,VALID,-0.0679233,VALID,17.743,VALID,150,VALID,0.981105,
2008-03-10, 01:56:00,VALID,916.62,VALID,0.2,VALID,100,VALID,-0.101885,VALID,17.727,VALID,157,VALID,0.584121,
2008-03-10, 01:57:00,VALID,916.64,VALID,0,VALID,100,VALID,-0.0849042,VALID,17.7237,VALID,169,VALID,0,
2008-03-10, 01:58:00,VALID,916.636,VALID,0,VALID,100,VALID,0.0339617,VALID,17.7219,VALID,154,VALID,0,
2008-03-10, 01:59:00,VALID,916.642,VALID,0.2,VALID,100,VALID,0,VALID,17.7157,VALID,155,VALID,0,
2008-03-10, 02:00:00,VALID,916.653,VALID,0,VALID,100,VALID,0.0339617,VALID,17.7189,VALID,156,VALID,0,
2008-03-10, 02:01:00,VALID,916.66,VALID,0.2,VALID,100,VALID,0.0509425,VALID,17.696,VALID,144,VALID,0,
2008-03-10, 02:02:00,VALID,916.659,VALID,0,VALID,100,VALID,0.0339617,VALID,17.683,VALID,132,VALID,0.0290179,
2008-03-10, 02:03:00,VALID,916.65,VALID,0,VALID,100,VALID,0.0679233,VALID,17.683,VALID,134,VALID,0.0651634,
2008-03-10, 02:04:00,VALID,916.632,VALID,0,VALID,100,VALID,0.0339617,VALID,17.6867,VALID,157,VALID,0.143111,
2008-03-10, 02:05:00,VALID,916.629,VALID,0,VALID,100,VALID,0.0169808,VALID,17.6863,VALID,164,VALID,0,
2008-03-10, 02:06:00,VALID,916.617,VALID,0,VALID,100,VALID,0.0169808,VALID,17.6902,VALID,164,VALID,0,
2008-03-10, 02:07:00,VALID,916.602,VALID,0.2,VALID,100,VALID,0.0339617,VALID,17.6835,VALID,161,VALID,0,
2008-03-10, 02:08:00,VALID,916.575,VALID,0,VALID,100,VALID,0.0339617,VALID,17.674,VALID,142,VALID,0,
2008-03-10, 02:09:00,VALID,916.552,VALID,0,VALID,100,VALID,0.0169808,VALID,17.6448,VALID,180,VALID,0.0375381,
2008-03-10, 02:10:00,VALID,916.521,VALID,0,VALID,100,VALID,0.0169808,VALID,17.6385,VALID,165,VALID,0.0100991,
2008-03-10, 02:11:00,VALID,916.514,VALID,0.2,VALID,100,VALID,0,VALID,17.6221,VALID,165,VALID,0,
2008-03-10, 02:12:00,VALID,916.496,VALID,0,VALID,100,VALID,0.0339617,VALID,17.6214,VALID,165,VALID,0,
2008-03-10, 02:13:00,VALID,916.504,VALID,0.2,VALID,100,VALID,0,VALID,17.6247,VALID,161,VALID,0.0279018,
2008-03-10, 02:14:00,VALID,916.507,VALID,0,VALID,100,VALID,0.0169808,VALID,17.6214,VALID,146,VALID,0.134415,
2008-03-10, 02:15:00,VALID,916.507,VALID,0,VALID,100,VALID,0,VALID,17.6184,VALID,131,VALID,0.338246,
2008-03-10, 02:16:00,VALID,916.499,VALID,0.2,VALID,100,VALID,0.0169808,VALID,17.6084,VALID,123,VALID,0.644737,
2008-03-10, 02:17:00,VALID,916.503,VALID,0,VALID,100,VALID,0.0169808,VALID,17.6052,VALID,129,VALID,0.98266,
2008-03-10, 02:18:00,VALID,916.493,VALID,0,VALID,100,VALID,0.0339617,VALID,17.5983,VALID,129,VALID,0.833984,
2008-03-10, 02:19:00,VALID,916.485,VALID,0.2,VALID,100,VALID,0.0339617,VALID,17.5985,VALID,150,VALID,1.00037,
2008-03-10, 02:20:00,VALID,916.469,VALID,0,VALID,100,VALID,0.0509425,VALID,17.605,VALID,138,VALID,0.474927,
2008-03-10, 02:21:00,VALID,916.461,VALID,0,VALID,100,VALID,0.0339617,VALID,17.6115,VALID,151,VALID,0.269631,
2008-03-10, 02:22:00,VALID,916.456,VALID,0,VALID,100,VALID,0.0509425,VALID,17.6115,VALID,159,VALID,0,
2008-03-10, 02:23:00,VALID,916.443,VALID,0.2,VALID,100,VALID,0.0509425,VALID,17.5918,VALID,164,VALID,0,
2008-03-10, 02:24:00,VALID,916.436,VALID,0,VALID,100,VALID,0.0509425,VALID,17.5983,VALID,158,VALID,0,
2008-03-10, 02:25:00,VALID,916.416,VALID,0,VALID,100,VALID,0,VALID,17.5925,VALID,161,VALID,0,
2008-03-10, 02:26:00,VALID,916.389,VALID,0,VALID,100,VALID,0.0339617,VALID,17.5853,VALID,148,VALID,0,
2008-03-10, 02:27:00,VALID,916.371,VALID,0,VALID,100,VALID,0.0509425,VALID,17.5953,VALID,141,VALID,0.133789,
2008-03-10, 02:28:00,VALID,916.352,VALID,0,VALID,100,VALID,0.0509425,VALID,17.5888,VALID,140,VALID,0.0993546,
2008-03-10, 02:29:00,VALID,916.346,VALID,0,VALID,100,VALID,0.0849042,VALID,17.5886,VALID,144,VALID,0.682478,
2008-03-10, 02:30:00,VALID,916.332,VALID,0.2,VALID,100,VALID,0.0339617,VALID,17.5723,VALID,146,VALID,1.04688,
2008-03-10, 02:31:00,VALID,916.325,VALID,0,VALID,100,VALID,0.0509425,VALID,17.5559,VALID,146,VALID,1.04821,
2008-03-10, 02:32:00,VALID,916.307,VALID,0,VALID,100,VALID,0.0509425,VALID,17.5594,VALID,143,VALID,0.594703,
2008-03-10, 02:33:00,VALID,916.292,VALID,0,VALID,100,VALID,0.0679233,VALID,17.5626,VALID,156,VALID,1.16592,
2008-03-10, 02:34:00,VALID,916.284,VALID,0,VALID,100,VALID,0.0509425,VALID,17.5501,VALID,152,VALID,1.20399,
2008-03-10, 02:35:00,VALID,916.263,VALID,0,VALID,100,VALID,0.0339617,VALID,17.557,VALID,146,VALID,0.741477,
2008-03-10, 02:36:00,VALID,916.246,VALID,0,VALID,100,VALID,0.0339617,VALID,17.5531,VALID,152,VALID,1.22514,
2008-03-10, 02:37:00,VALID,916.227,VALID,0,VALID,100,VALID,0.0339617,VALID,17.5466,VALID,159,VALID,1.26108,
2008-03-10, 02:38:00,VALID,916.209,VALID,0,VALID,100,VALID,0.0339617,VALID,17.5466,VALID,160,VALID,1.06891,
2008-03-10, 02:39:00,VALID,916.198,VALID,0,VALID,100,VALID,0.0509425,VALID,17.5499,VALID,150,VALID,0.626598,
2008-03-10, 02:40:00,VALID,916.176,VALID,0,VALID,100,VALID,0.0509425,VALID,17.5399,VALID,159,VALID,0.960211,
2008-03-10, 02:41:00,VALID,916.157,VALID,0,VALID,100,VALID,0.0679233,VALID,17.53,VALID,149,VALID,0.495276,
2008-03-10, 02:42:00,VALID,916.152,VALID,0,VALID,100,VALID,0.0339617,VALID,17.5365,VALID,160,VALID,0.386242,
2008-03-10, 02:43:00,VALID,916.129,VALID,0,VALID,100,VALID,0.0339617,VALID,17.5471,VALID,139,VALID,0.369549,
2008-03-10, 02:44:00,VALID,916.111,VALID,0,VALID,100,VALID,0.0509425,VALID,17.5332,VALID,167,VALID,0.993278,
2008-03-10, 02:45:00,VALID,916.088,VALID,0,VALID,100,VALID,0.0679233,VALID,17.5436,VALID,145,VALID,0.915737,
2008-03-10, 02:46:00,VALID,916.081,VALID,0,VALID,100,VALID,0,VALID,17.5309,VALID,154,VALID,1.03088,
2008-03-10, 02:47:00,VALID,916.064,VALID,0,VALID,100,VALID,0.0169808,VALID,17.5436,VALID,160,VALID,1.01687,
2008-03-10, 02:48:00,VALID,916.045,VALID,0,VALID,100,VALID,0.0169808,VALID,17.5332,VALID,164,VALID,0.944949,
2008-03-10, 02:49:00,VALID,916.037,VALID,0,VALID,100,VALID,0.0339617,VALID,17.5466,VALID,170,VALID,0.805831,
2008-03-10, 02:50:00,VALID,916.018,VALID,0,VALID,100,VALID,0.0339617,VALID,17.5572,VALID,162,VALID,0.846977,
2008-03-10, 02:51:00,VALID,916.002,VALID,0,VALID,100,VALID,0,VALID,17.5339,VALID,181,VALID,0.367543,
2008-03-10, 02:52:00,VALID,915.983,VALID,0,VALID,100,VALID,0.0169808,VALID,17.5464,VALID,152,VALID,0.438058,
2008-03-10, 02:53:00,VALID,915.972,VALID,0,VALID,100,VALID,0.0509425,VALID,17.5399,VALID,155,VALID,1.18066,
2008-03-10, 02:54:00,VALID,915.976,VALID,0,VALID,100,VALID,0.0169808,VALID,17.53,VALID,159,VALID,0.57793,
2008-03-10, 02:55:00,VALID,915.991,VALID,0,VALID,100,VALID,0.0169808,VALID,17.5438,VALID,166,VALID,0.161914,
2008-03-10, 02:56:00,VALID,916.003,VALID,0,VALID,100,VALID,0.0339617,VALID,17.5304,VALID,151,VALID,1.02464,
2008-03-10, 02:57:00,VALID,916,VALID,0,VALID,100,VALID,0.0169808,VALID,17.5274,VALID,154,VALID,0.53125,
2008-03-10, 02:58:00,VALID,915.992,VALID,0,VALID,100,VALID,0.0679233,VALID,17.5432,VALID,153,VALID,0.61684,
2008-03-10, 02:59:00,VALID,915.978,VALID,0,VALID,100,VALID,0.0509425,VALID,17.517,VALID,140,VALID,0.71548,
2008-03-10, 03:00:00,VALID,915.971,VALID,0,VALID,100,VALID,0.0509425,VALID,17.5043,VALID,148,VALID,0.178199,
2008-03-10, 03:01:00,VALID,915.947,VALID,0,VALID,100,VALID,0.0169808,VALID,17.4945,VALID,158,VALID,0.753819,
2008-03-10, 03:02:00,VALID,915.937,VALID,0,VALID,100,VALID,0,VALID,17.4848,VALID,143,VALID,0.488281,
2008-03-10, 03:03:00,VALID,915.934,VALID,0,VALID,100,VALID,0.0679233,VALID,17.4846,VALID,116,VALID,0.255382,
2008-03-10, 03:04:00,VALID,915.918,VALID,0,VALID,100,VALID,0.0679233,VALID,17.4816,VALID,132,VALID,0.394622,
2008-03-10, 03:05:00,VALID,915.891,VALID,0,VALID,100,VALID,0.0339617,VALID,17.4619,VALID,150,VALID,0.807478,
2008-03-10, 03:06:00,VALID,915.879,VALID,0,VALID,100,VALID,0.0169808,VALID,17.4656,VALID,161,VALID,1.19222,
2008-03-10, 03:07:00,VALID,915.887,VALID,0,VALID,100,VALID,0.0169808,VALID,17.476,VALID,161,VALID,1.22905,
2008-03-10, 03:08:00,VALID,915.879,VALID,0,VALID,100,VALID,0.0679233,VALID,17.4684,VALID,169,VALID,1.21968,
2008-03-10, 03:09:00,VALID,915.866,VALID,0,VALID,100,VALID,0.0169808,VALID,17.4818,VALID,166,VALID,1.09455,
2008-03-10, 03:10:00,VALID,915.88,VALID,0,VALID,100,VALID,0.0339617,VALID,17.4881,VALID,158,VALID,1.43192,
2008-03-10, 03:11:00,VALID,915.883,VALID,0,VALID,100,VALID,0,VALID,17.4922,VALID,157,VALID,1.37173,
2008-03-10, 03:12:00,VALID,915.91,VALID,0,VALID,100,VALID,0,VALID,17.4749,VALID,153,VALID,1.42001,
2008-03-10, 03:13:00,VALID,915.896,VALID,0,VALID,100,VALID,-0.0679233,VALID,17.4833,VALID,157,VALID,1.04215,
2008-03-10, 03:14:00,VALID,915.905,VALID,0,VALID,100,VALID,-0.101885,VALID,17.4771,VALID,153,VALID,1.16673,
2008-03-10, 03:15:00,VALID,915.902,VALID,0,VALID,100,VALID,-0.101885,VALID,17.4667,VALID,148,VALID,0.476563,
2008-03-10, 03:16:00,VALID,915.889,VALID,0,VALID,100,VALID,-0.101885,VALID,17.4669,VALID,133,VALID,0.159157,
2008-03-10, 03:17:00,VALID,915.869,VALID,0,VALID,100,VALID,-0.0849042,VALID,17.4639,VALID,146,VALID,0.292492,
2008-03-10, 03:18:00,VALID,915.858,VALID,0,VALID,100,VALID,-0.0679233,VALID,17.4511,VALID,124,VALID,0.892187,
2008-03-10, 03:19:00,VALID,915.844,VALID,0,VALID,100,VALID,-0.0849042,VALID,17.431,VALID,122,VALID,1.03787,
2008-03-10, 03:20:00,VALID,915.837,VALID,0,VALID,100,VALID,-0.0679233,VALID,17.4248,VALID,131,VALID,0.471418,
2008-03-10, 03:21:00,VALID,915.831,VALID,0,VALID,100,VALID,-0.118866,VALID,17.4213,VALID,112,VALID,0.26835,
2008-03-10, 03:22:00,VALID,915.827,VALID,0,VALID,100,VALID,-0.118866,VALID,17.4351,VALID,119,VALID,0.190358,
2008-03-10, 03:23:00,VALID,915.815,VALID,0,VALID,100,VALID,-0.118866,VALID,17.4379,VALID,117,VALID,0.755716,
2008-03-10, 03:24:00,VALID,915.802,VALID,0,VALID,100,VALID,-0.0509425,VALID,17.4349,VALID,103,VALID,0.299237,
2008-03-10, 03:25:00,VALID,915.79,VALID,0,VALID,100,VALID,-0.0849042,VALID,17.4349,VALID,90,VALID,0.305043,
2008-03-10, 03:26:00,VALID,915.783,VALID,0,VALID,100,VALID,-0.0849042,VALID,17.4384,VALID,99,VALID,0.178943,
2008-03-10, 03:27:00,VALID,915.774,VALID,0,VALID,100,VALID,-0.0849042,VALID,17.4446,VALID,102,VALID,0,
2008-03-10, 03:28:00,VALID,915.773,VALID,0,VALID,100,VALID,-0.0169808,VALID,17.4306,VALID,107,VALID,0.288504,
2008-03-10, 03:29:00,VALID,915.778,VALID,0,VALID,100,VALID,0,VALID,17.4301,VALID,111,VALID,0.631214,
2008-03-10, 03:30:00,VALID,915.771,VALID,0,VALID,100,VALID,-0.0169808,VALID,17.4401,VALID,108,VALID,0.955433,
2008-03-10, 03:31:00,VALID,915.778,VALID,0,VALID,100,VALID,0,VALID,17.4533,VALID,110,VALID,0.713542,
2008-03-10, 03:32:00,VALID,915.786,VALID,0,VALID,100,VALID,0,VALID,17.4466,VALID,114,VALID,0.684593,
2008-03-10, 03:33:00,VALID,915.774,VALID,0,VALID,100,VALID,-0.0169808,VALID,17.4496,VALID,130,VALID,0.736049,
2008-03-10, 03:34:00,VALID,915.772,VALID,0,VALID,100,VALID,0,VALID,17.4595,VALID,133,VALID,0.730378,
2008-03-10, 03:35:00,VALID,915.78,VALID,0,VALID,100,VALID,0.0169808,VALID,17.4658,VALID,120,VALID,0.285714,
2008-03-10, 03:36:00,VALID,915.767,VALID,0,VALID,100,VALID,0.0169808,VALID,17.4755,VALID,130,VALID,0.551054,
2008-03-10, 03:37:00,VALID,915.756,VALID,0,VALID,100,VALID,0.0169808,VALID,17.482,VALID,131,VALID,0.642299,
2008-03-10, 03:38:00,VALID,915.747,VALID,0,VALID,100,VALID,0,VALID,17.4816,VALID,117,VALID,0.518169,
2008-03-10, 03:39:00,VALID,915.732,VALID,0,VALID,100,VALID,0.0169808,VALID,17.5051,VALID,145,VALID,0.467416,
2008-03-10, 03:40:00,VALID,915.722,VALID,0,VALID,100,VALID,0.0339617,VALID,17.501,VALID,144,VALID,0.140803,
2008-03-10, 03:41:00,VALID,915.721,VALID,0,VALID,100,VALID,0,VALID,17.5079,VALID,146,VALID,0.591546,
2008-03-10, 03:42:00,VALID,915.703,VALID,0,VALID,100,VALID,0.0169808,VALID,17.5075,VALID,142,VALID,0.362571,
2008-03-10, 03:43:00,VALID,915.705,VALID,0,VALID,100,VALID,0,VALID,17.514,VALID,140,VALID,0.00520833,
2008-03-10, 03:44:00,VALID,915.71,VALID,0,VALID,100,VALID,0.0339617,VALID,17.504,VALID,132,VALID,0.705031,